NOAA NWS Hourly Roundups by Site

Regional Weather Roundup for State College, PA

To Select Another Site Choose from List

Select Site:  

000
ASUS41 KCTP 220110
RWRCTP

REGIONAL WEATHER ROUNDUP
NATIONAL WEATHER SERVICE STATE COLLEGE PA
900 PM EDT TUE SEP 21 2021

Note: "fair" indicates few or no clouds below 12,000 feet with no
significant weather and/or obstructions to visibility.

* = STATION THAT DOES NOT REPORT PRECIPITATION /E.G. RAIN...SNOW...ETC/
    THUNDER OR FOG.

PAZ002>004-007>009-013>016-020>023-029>032-220200-
WESTERN PENNSYLVANIA

CITY           SKY/WX    TMP DP  RH WIND       PRES   REMARKS
ERIE           LGT RAIN  69  64  84 S8        30.08F
MEADVILLE      CLOUDY    66  64  93 CALM      30.12S
FRANKLIN       LGT RAIN  66  63  90 SE9       30.15S
NEW CASTLE     LGT RAIN  67  65  93 SE3       30.12S
BEAVER COUNTY  DRIZZLE   69  65  86 SE6       30.13S
BUTLER         LGT RAIN  66  64  93 SE8       30.15R
PITTSBURGH INT LGT RAIN  67  65  93 SE6       30.13R
PITTSBURGH     RAIN      68  64  87 SE8       30.14R FOG
INDIANA*       CLOUDY    66  66 100 CALM      30.20F FOG
LATROBE        LGT RAIN  66  66 100 CALM      30.15F
WASHINGTON CO* CLOUDY    66  65  96 SE7       30.16R
$$

PAZ004>006-010>012-017>019-024>028-033>037-041-042-045-046-049>053-220200-
CENTRAL PENNSYLVANIA

CITY           SKY/WX    TMP DP  RH WIND       PRES   REMARKS
BRADFORD       MOCLDY    64  57  78 SE10      30.19S
ST MARYS       CLOUDY    63  63 100 SE5       30.24
DUBOIS         LGT RAIN  64  63  96 VRB6      30.19R FOG
CLEARFIELD     LGT RAIN  64  64 100 CALM      30.21S FOG
JOHNSTOWN      RAIN      64  61  90 SE8       30.20F FOG
SOMERSET       LGT RAIN  63  61  94 SE7       30.20F
ALTOONA        LGT RAIN  66  63  90 S6        30.21S FOG
STATE COLLEGE  MOCLDY    64  63  94 CALM      30.19S FOG
REEDSVILLE     NOT AVBL
WELLSBORO      LGT RAIN  63  63 100 S8        30.22S
WILLIAMSPORT   MOCLDY    71  62  73 E10       30.18F
SELINSGROVE    MOCLDY    70  63  78 SE6       30.21S
FT INDIANTOWN  NOT AVBL
CAPITAL CITY   MOCLDY    74  61  63 SE8       30.20S
HARRISBURG     MOCLDY    72  61  68 SE6       30.20S
YORK           MOCLDY    70  61  73 SE5       30.21S
$$

PAZ038>040-043-044-047-048-054-055-060>062-067>071-220200-
EASTERN PENNSYLVANIA

CITY           SKY/WX    TMP DP  RH WIND       PRES   REMARKS
TOWANDA        CLEAR     66  63  88 CALM      30.24S
SCRANTON       PTCLDY    69  61  75 VRB5      30.25S
MOUNT POCONO   CLOUDY    62  61  96 E6        30.30R
HAZLETON       FAIR      64  61  88 E5        30.29S
LEHIGHTON      FAIR      64  64 100 CALM      30.26S
ALLENTOWN      PTCLDY    69  62  78 E10       30.25R
QN CITY/ALNTWN FAIR      70  63  78 SE7       30.26S
QUAKERTOWN*    CLEAR     66  64  94 CALM      30.26S
PERKASIE*      PTCLDY    66  66 100 CALM      30.27S
DOYLESTOWN     CLOUDY    70  63  78 CALM      30.25S
READING        PTCLDY    72  63  73 E3        30.22R
LANCASTER      PTCLDY    68  62  81 E5        30.22S
COATESVILLE    PTCLDY    68  64  88 SE5       30.25S
WEST CHESTER   PTCLDY    70  63  78 CALM      30.23F
POTTSTOWN      PTCLDY    67  61  81 E5        30.25S
BLUE BELL      PTCLDY    69  65  88 E5        30.25
NORTH PHILA    CLOUDY    72  67  84 E8        30.25F
PHILADELPHIA   MOCLDY    73  67  81 E10       30.23F
$$


 

View Past Reports for State College, PA.

Products Courtesy of NOAA-NWS
NWS Information Parsing Script by Ken True at Saratoga Weather - Script by SE Lincoln Weather.